Satellite-Ground Cal/Val Site Overpasses Predictions

Prediction of Satellite NPP Overpassing Cal/Val Site: Antarctic Dome C

Ground Cal/Val Site Location: Latitude: -75.10, Longitude: 123.35; Satellite-Ground Site NADIR distance within 100 km.

Table of predicted overpasses for the next 14.0 days since TLE Epoch: 12/8/2017
Interval Starting Time Ending Time Minimum Distance Time Minimum Distance (km)
1 12/09/2017 15:08:03 12/09/2017 15:08:09 12/09/2017 15:08:06 97.16
2 12/10/2017 14:49:02 12/10/2017 14:49:31 12/10/2017 14:49:16 14.27
3 12/12/2017 07:31:50 12/12/2017 07:32:20 12/12/2017 07:32:05 2.92
4 12/15/2017 14:55:16 12/15/2017 14:55:44 12/15/2017 14:55:30 22.19
5 12/16/2017 14:36:33 12/16/2017 14:36:48 12/16/2017 14:36:41 84.90
6 12/17/2017 07:38:05 12/17/2017 07:38:32 12/17/2017 07:38:19 38.87
7 12/18/2017 07:19:19 12/18/2017 07:19:39 12/18/2017 07:19:29 71.14
8 12/20/2017 15:01:33 12/20/2017 15:01:56 12/20/2017 15:01:45 59.25
9 12/21/2017 14:42:41 12/21/2017 14:43:07 12/21/2017 14:42:54 50.04


NCC Satellite Cal/Val Overpasses Prediction Service
